Weather History for Menomonie, WI

Change the Weather History Date:

Tuesday, December 10, 2013

  Actual Average (KEAU) Record (KEAU)
Temperature  
Mean Temperature 2 °F 20 °F  
Max Temperature 9 °F 29 °F 53 °F (1979)
Min Temperature -4 °F 12 °F -20 °F (1978)
Degree Days  
Heating Degree Days 62 45  
Month to date heating degree days 428  
Since 1 July heating degree days 2174  
Cooling Degree Days 0 0  
Month to date cooling degree days 0  
Year to date cooling degree days 579  
Moisture  
Dew Point -2 °F    
Average Humidity 73    
Maximum Humidity 85    
Minimum Humidity 63    
Precipitation  
Precipitation 0.00 in 0.03 in 0.97 in (1911)
Month to date precipitation 0.39  
Year to date precipitation 30.37  
Snow  
Snow 0.00 in 0.30 in 2.80 in (2003)
Month to date snowfall 3.1  
Since 1 July snowfall 9.4  
Snow Depth -    
Sea Level Pressure  
Sea Level Pressure 29.99 in    
Wind  
Wind Speed 8 mph (SW)    
Max Wind Speed 18 mph    
Max Gust Speed 22 mph    
Visibility 8 miles    
Events Snow    
T = Trace of Precipitation, MM = Missing Value Source: NWS Daily Summary

Daily Weather History Graph

Daily Weather History Graph

Search for Another Location

Airport:

Trip Planner

Search our weather history database for the weather conditions in past years. The results will help you decide how hot, cold, wet, or windy it might be!

Date:

Astronomy

Dec. 10, 2013 Rise Set
Actual Time 7:34 AM CST 4:26 PM CST
Civil Twilight 7:01 AM CST 4:59 PM CST
Nautical Twilight 6:24 AM CST 5:36 PM CST
Astronomical Twilight 5:48 AM CST 6:12 PM CST
Moon 12:41 PM CST (12/10) 12:38 AM CST (12/10)
Length of Visible Light 9h 58m
Length of Day
8h 51m
Waxing Gibbous, 62% of the Moon is Illuminated
Dec 10
Waxing Gibbous
Dec 17
Full
Dec 25
Last Quarter
Jan 1
New
Jan 7
First Quarter

Hourly Weather History & Observations

Time (CST) Temp. Windchill Dew Point Humidity Pressure Visibility Wind Dir Wind Speed Gust Speed Precip Events Conditions
12:15 AM -4.5 °F -15.2 °F -9.8 °F 78% 29.95 in 10.0 mi ESE 4.6 mph - N/A   Mostly Cloudy
12:35 AM -3.5 °F -19.5 °F -9.4 °F 76% 29.93 in 10.0 mi ESE 9.2 mph - N/A   Overcast
12:55 AM -2.0 °F -17.7 °F -7.4 °F 78% 29.90 in 10.0 mi ESE 9.2 mph - N/A   Overcast
1:15 AM -0.4 °F -15.7 °F -6.2 °F 77% 29.87 in 10.0 mi East 9.2 mph - N/A   Overcast
1:35 AM 0.5 °F -14.6 °F -5.8 °F 75% 29.86 in 5.0 mi SE 9.2 mph - N/A   Haze
1:55 AM 0.5 °F -12.3 °F -5.6 °F 75% 29.86 in 5.0 mi SE 6.9 mph - N/A Snow Light Snow
2:15 AM 1.0 °F -12.9 °F -4.5 °F 77% 29.84 in 3.0 mi ESE 8.1 mph - N/A Snow Light Snow
2:35 AM 1.4 °F -12.5 °F -4.0 °F 78% 29.83 in 3.0 mi ESE 8.1 mph - N/A Snow Light Snow
2:55 AM 1.8 °F -10.8 °F -3.3 °F 79% 29.82 in 2.0 mi ESE 6.9 mph - N/A Snow Light Snow
3:15 AM 2.3 °F -11.4 °F -2.4 °F 81% 29.81 in 7.0 mi ESE 8.1 mph - N/A Snow Light Snow
3:35 AM 2.7 °F -9.7 °F -1.8 °F 81% 29.80 in 4.0 mi East 6.9 mph - N/A Snow Light Snow
3:55 AM 3.2 °F -7.8 °F -1.3 °F 82% 29.78 in 3.0 mi East 5.8 mph - N/A Snow Light Snow
4:35 AM 5.7 °F -4.8 °F 0.7 °F 80% 29.77 in 2.5 mi SSE 5.8 mph - N/A Snow Light Snow
4:55 AM 5.7 °F -4.8 °F 1.2 °F 82% 29.77 in 2.0 mi SSE 5.8 mph - N/A Snow Light Snow
5:15 AM 5.5 °F -3.4 °F 1.2 °F 82% 29.77 in 1.8 mi SE 4.6 mph - N/A Snow Light Snow
5:35 AM 5.7 °F - 1.4 °F 82% 29.77 in 1.0 mi Calm Calm - N/A Snow Snow
5:55 AM 5.7 °F - 1.9 °F 84% 29.78 in 1.2 mi Calm Calm - N/A Snow Light Snow
6:15 AM 5.0 °F - 1.2 °F 84% 29.78 in 1.2 mi Calm Calm - N/A Snow Light Snow
6:35 AM 4.3 °F - 0.7 °F 85% 29.79 in 0.8 mi Calm Calm - N/A Snow Snow
6:55 AM 3.2 °F - -0.6 °F 84% 29.80 in 1.5 mi Calm Calm - N/A Snow Light Snow
7:15 AM 3.4 °F -5.9 °F -0.2 °F 85% 29.82 in 5.0 mi West 4.6 mph - N/A Snow Light Snow
7:35 AM 2.8 °F -11.7 °F -1.3 °F 83% 29.84 in 5.0 mi West 9.2 mph - N/A Snow Light Snow
7:55 AM 4.6 °F -13.4 °F 0.7 °F 84% 29.86 in 5.0 mi West 15.0 mph 18.4 mph N/A   Mostly Cloudy
8:15 AM 4.8 °F -12.5 °F -0.6 °F 78% 29.88 in 4.0 mi WNW 13.8 mph 21.9 mph N/A   Haze
8:35 AM 4.1 °F -13.4 °F -2.2 °F 75% 29.90 in 5.0 mi West 13.8 mph 20.7 mph N/A   Haze
8:55 AM 3.7 °F -14.6 °F -3.3 °F 73% 29.93 in 10.0 mi West 15.0 mph 18.4 mph N/A   Clear
9:15 AM 3.2 °F -17.1 °F -4.2 °F 71% 29.94 in 7.0 mi West 18.4 mph 21.9 mph N/A   Clear
9:35 AM 2.8 °F -17.0 °F -4.9 °F 70% 29.95 in 5.0 mi WNW 17.3 mph - N/A   Haze
9:55 AM 2.7 °F -13.8 °F -5.3 °F 70% 29.96 in 10.0 mi WNW 11.5 mph - N/A   Clear
10:15 AM 2.7 °F -15.3 °F -5.8 °F 68% 29.95 in 10.0 mi West 13.8 mph - N/A   Clear
10:35 AM 3.0 °F -15.5 °F -5.6 °F 67% 29.96 in 10.0 mi West 15.0 mph - N/A   Clear
10:55 AM 3.4 °F -12.0 °F -5.6 °F 66% 29.98 in 10.0 mi West 10.4 mph - N/A   Clear
11:15 AM 4.3 °F -10.9 °F -5.1 °F 65% 29.99 in 10.0 mi WSW 10.4 mph - N/A   Clear
11:35 AM 4.8 °F -11.8 °F -4.4 °F 66% 30.01 in 10.0 mi WSW 12.7 mph - N/A   Clear
11:55 AM 5.4 °F -11.1 °F -4.0 °F 65% 30.01 in 10.0 mi WSW 12.7 mph 19.6 mph N/A   Clear
12:15 PM 6.8 °F -7.8 °F -3.1 °F 64% 30.02 in 10.0 mi WSW 10.4 mph - N/A   Clear
12:35 PM 7.2 °F -10.8 °F -3.1 °F 63% 30.02 in 10.0 mi West 16.1 mph - N/A   Scattered Clouds
12:55 PM 7.7 °F -5.8 °F -2.2 °F 64% 30.02 in 10.0 mi West 9.2 mph - N/A   Clear
1:15 PM 8.6 °F -6.3 °F -1.8 °F 63% 30.01 in 10.0 mi West 11.5 mph - N/A   Clear
1:35 PM 9.0 °F -5.1 °F -1.5 °F 63% 30.03 in 10.0 mi WSW 10.4 mph - N/A   Scattered Clouds
1:55 PM 9.1 °F -5.6 °F -0.9 °F 64% 30.03 in 10.0 mi WSW 11.5 mph - N/A   Scattered Clouds
2:15 PM 8.8 °F -8.7 °F -0.4 °F 66% 30.04 in 10.0 mi SW 16.1 mph - N/A   Scattered Clouds
2:35 PM 8.4 °F -6.5 °F -1.3 °F 65% 30.04 in 10.0 mi WSW 11.5 mph 19.6 mph N/A   Clear
2:55 PM 7.5 °F -9.1 °F -2.6 °F 63% 30.05 in 10.0 mi WSW 13.8 mph - N/A   Clear
3:15 PM 7.2 °F -9.6 °F -3.1 °F 63% 30.05 in 10.0 mi WSW 13.8 mph 18.4 mph N/A   Clear
3:35 PM 6.4 °F -8.2 °F -3.5 °F 64% 30.06 in 10.0 mi WSW 10.4 mph - N/A   Clear
3:55 PM 5.9 °F -8.9 °F -3.6 °F 65% 30.06 in 10.0 mi WSW 10.4 mph 19.6 mph N/A   Clear
4:15 PM 5.5 °F -7.4 °F -3.8 °F 65% 30.07 in 10.0 mi WSW 8.1 mph - N/A   Clear
4:35 PM 5.4 °F -7.6 °F -3.6 °F 66% 30.07 in 10.0 mi WSW 8.1 mph - N/A   Clear
4:55 PM 5.0 °F -4.1 °F -3.5 °F 68% 30.08 in 10.0 mi SW 4.6 mph - N/A   Clear
5:15 PM 4.5 °F -4.7 °F -3.5 °F 70% 30.07 in 10.0 mi SSW 4.6 mph - N/A   Clear
5:35 PM 4.6 °F -6.0 °F -3.3 °F 70% 30.07 in 10.0 mi South 5.8 mph - N/A   Clear
5:55 PM 5.0 °F -5.6 °F -3.1 °F 69% 30.08 in 10.0 mi SW 5.8 mph - N/A   Clear
6:15 PM 4.8 °F -5.8 °F -2.7 °F 71% 30.09 in 10.0 mi SW 5.8 mph - N/A   Scattered Clouds
6:35 PM 5.0 °F -5.6 °F -2.7 °F 70% 30.11 in 10.0 mi SSW 5.8 mph - N/A   Scattered Clouds
6:55 PM 5.5 °F -5.0 °F -2.2 °F 70% 30.11 in 10.0 mi SSW 5.8 mph - N/A   Clear
7:15 PM 5.5 °F -5.0 °F -2.2 °F 70% 30.12 in 10.0 mi SW 5.8 mph - N/A   Mostly Cloudy
7:35 PM 6.1 °F -4.3 °F -1.7 °F 71% 30.12 in 10.0 mi SW 5.8 mph - N/A   Overcast
7:55 PM 6.8 °F -4.8 °F -0.9 °F 71% 30.13 in 10.0 mi WSW 6.9 mph - N/A   Overcast
8:15 PM 7.2 °F -4.3 °F -0.4 °F 71% 30.13 in 10.0 mi WSW 6.9 mph - N/A   Overcast
8:35 PM 7.5 °F -1.1 °F -0.0 °F 71% 30.13 in 10.0 mi SW 4.6 mph - N/A   Overcast
8:55 PM 7.7 °F -2.4 °F 0.5 °F 72% 30.15 in 10.0 mi SW 5.8 mph - N/A   Overcast
9:15 PM 8.1 °F -0.5 °F 1.0 °F 73% 30.15 in 7.0 mi SW 4.6 mph - N/A Snow Light Snow
9:35 PM 8.6 °F -2.6 °F 2.1 °F 75% 30.16 in 10.0 mi WSW 6.9 mph - N/A   Overcast
9:55 PM 9.0 °F -2.2 °F 2.3 °F 74% 30.16 in 7.0 mi WSW 6.9 mph - N/A   Overcast
10:15 PM 9.1 °F -3.0 °F 3.2 °F 77% 30.17 in 7.0 mi WSW 8.1 mph - N/A   Overcast
10:35 PM 9.0 °F -0.9 °F 3.4 °F 78% 30.17 in 10.0 mi SW 5.8 mph - N/A   Overcast
10:55 PM 9.1 °F -0.7 °F 3.4 °F 77% 30.18 in 10.0 mi WSW 5.8 mph - N/A   Overcast
11:15 PM 9.3 °F 1.0 °F 3.9 °F 79% 30.18 in 10.0 mi WSW 4.6 mph - N/A   Overcast
11:35 PM 9.1 °F 0.8 °F 3.7 °F 79% 30.18 in 10.0 mi West 4.6 mph - N/A   Overcast
11:55 PM 8.1 °F -2.0 °F 3.0 °F 80% 30.19 in 7.0 mi West 5.8 mph - N/A Snow Light Snow